Probability
28 25 23 23 22 21 20 19 18 20 22 19 15 13 12 14 16 16 16 16 14 11 9 8 7 7 6 6 6 7 9 10 10 12 12 12 12 11 11 12 12 10 10
29 26 23 23 22 21 19 17 17 20 22 19 16 14 15 15 16 14 13 12 12 11 9 8 7 7 8 8 8 9 10 10 10 11 12 11 10 10 11 13 13 11 9
28 27 25 24 25 24 21 18 18 19 18 16 15 16 17 16 15 13 11 10 9 9 9 9 9 8 9 9 10 11 11 11 12 12 11 10 8 8 9 12 14 12 9
28 27 27 27 27 25 22 19 18 18 17 15 16 17 17 16 15 12 10 9 9 8 9 11 11 10 9 9 9 11 13 14 16 16 14 11 9 9 9 11 13 12 9
27 27 28 28 26 24 21 17 18 19 19 18 18 17 16 16 14 11 10 10 10 10 11 12 11 10 9 8 8 10 12 14 17 18 16 13 11 12 12 11 12 12 10
26 25 25 26 25 23 18 15 16 18 18 17 15 14 13 13 12 10 10 11 12 12 13 12 11 10 9 9 9 9 10 12 15 17 15 13 13 15 14 11 10 12 13
22 22 22 24 25 22 17 14 16 16 14 13 12 9 8 8 9 9 9 10 11 13 12 11 11 12 11 10 10 10 10 12 14 15 14 12 13 15 14 12 12 12 13
18 18 20 21 23 21 17 15 16 14 10 10 9 6 4 5 7 7 8 8 11 13 13 11 10 12 12 11 9 10 11 13 16 16 15 12 11 12 12 14 15 14 12
17 16 17 18 19 18 16 15 14 11 8 7 7 5 4 5 6 7 8 9 11 13 12 10 9 9 11 10 9 8 8 10 14 16 16 13 11 11 12 15 16 14 12
14 13 14 15 15 14 13 12 11 9 8 7 7 7 6 6 5 6 7 8 9 10 10 8 6 7 8 9 9 7 4 4 8 13 14 12 11 10 11 13 13 12 11
10 10 12 13 12 11 10 9 8 9 9 9 9 8 8 6 4 2 3 4 5 6 7 5 3 4 6 7 6 4 1 1 2 6 8 8 9 9 9 9 10 10 10
10 9 11 12 11 10 9 8 7 8 9 9 9 9 9 7 4 1 1 1 2 4 6 6 4 2 3 4 4 3 1 0 0 1 2 3 6 7 6 6 8 9 9
12 11 11 11 11 9 9 8 8 8 9 9 9 9 9 8 6 4 2 1 2 3 6 7 5 2 3 4 4 4 2 1 0 0 0 0 2 3 3 4 6 7 7
13 11 9 10 10 8 8 9 10 9 9 10 9 8 8 8 7 6 5 3 2 2 4 5 4 3 3 3 3 3 2 1 0 0 0 0 0 1 1 1 2 3 3
10 8 6 8 8 8 8 9 10 10 10 10 8 6 6 6 5 5 5 5 3 2 2 3 3 3 2 2 1 1 1 0 0 0 0 0 0 0 0 0 0 0 1
6 6 6 6 7 7 7 7 8 9 9 8 6 4 3 3 2 2 3 3 3 1 1 1 1 1 1 1 1 1 1 1 0 0 0 0 0 0 0 0 0 0 0
4 5 6 6 5 5 5 5 5 6 5 4 4 3 2 1 0 0 1 1 1 1 0 0 0 0 1 2 2 2 1 1 0 0 0 0 0 0 0 0 0 0 0
4 4 4 3 2 2 3 3 3 3 1 1 2 2 2 1 0 0 0 0 0 0 0 0 1 1 2 2 2 2 2 2 2 1 0 0 0 0 0 0 0 0 0
3 3 2 2 1 0 2 3 3 1 0 0 1 1 1 1 0 0 0 1 1 1 1 1 2 3 2 2 3 3 3 4 3 1 0 0 0 0 0 0 0 0 0
3 2 2 1 1 0 2 3 2 1 0 0 1 1 1 1 0 0 1 2 2 2 2 3 3 3 2 2 3 4 5 5 3 2 2 1 1 1 0 0 0 0 0
2 2 2 1 0 0 1 1 1 0 0 1 2 2 2 1 0 0 1 2 2 2 2 2 2 1 1 1 2 3 4 4 4 4 4 3 2 2 1 1 0 0 0
2 3 2 1 0 0 0 0 0 0 0 2 3 3 1 0 0 0 0 1 1 1 1 1 1 0 0 0 0 1 2 3 4 5 5 4 4 4 3 2 0 0 0
2 3 3 1 0 0 0 0 0 0 0 1 2 3 2 1 0 0 0 0 0 0 0 0 0 0 0 0 0 1 2 3 3 4 5 5 5 5 4 2 0 0 0
2 2 2 1 0 0 0 0 0 0 0 0 1 3 4 3 1 0 0 0 0 0 0 0 0 0 0 0 0 1 2 3 3 3 3 4 4 4 3 1 0 0 0
1 1 1 1 0 0 0 0 0 0 0 1 1 2 3 2 1 0 0 0 0 0 0 0 0 0 0 0 0 1 2 2 3 2 2 2 3 3 2 1 1 0 0
0 1 0 0 0 0 0 0 0 0 1 2 2 2 1 1 0 0 0 0 0 0 0 0 0 0 0 0 0 1 1 2 2 1 1 1 2 2 2 2 2 1 0
Wind_Speed
3 3 3 3 4 3 3 4 4 5 5 6 6 6 7 8 7 6 4 7 8 9 11 11 11 12 12 12 12 13 14 14 14 14 15 15 15 15 15 14 14 14 14
2 3 4 4 4 3 3 4 5 5 5 5 6 6 7 8 7 7 6 6 10 10 10 11 11 12 11 11 11 11 12 13 14 14 15 15 15 16 16 15 15 15 15
3 4 4 4 3 4 4 5 5 5 5 5 6 6 6 7 6 7 7 6 6 10 11 10 10 10 10 11 11 12 12 12 13 14 15 15 16 16 16 16 16 16 15
4 4 4 4 3 4 3 3 4 4 4 5 5 5 5 5 7 7 7 6 6 6 9 10 9 9 10 11 11 12 13 13 13 13 14 15 16 16 16 16 16 16 16
4 4 3 3 4 3 3 4 3 4 5 5 5 5 5 5 5 6 7 7 6 6 6 7 10 10 10 11 12 12 13 13 13 13 14 15 15 15 15 15 15 15 16
4 4 3 3 3 3 3 3 4 4 4 4 6 5 5 5 4 5 7 6 6 7 8 6 6 8 11 11 11 12 12 13 12 13 14 14 14 13 13 14 14 15 16
4 4 3 3 3 3 4 5 4 4 4 3 5 5 5 6 5 5 5 5 6 6 6 6 6 5 5 11 11 11 12 12 12 13 13 13 13 13 13 14 14 15 15
4 3 3 3 3 3 4 4 4 4 3 2 4 5 4 4 4 4 4 5 5 5 6 7 6 6 6 5 7 11 11 11 12 13 13 12 13 14 14 14 15 15 15
3 3 3 4 4 4 3 4 4 5 4 4 3 4 4 3 3 3 4 4 4 4 5 5 7 7 7 6 5 9 10 9 11 13 13 12 12 13 14 14 15 15 16
3 3 4 3 4 3 4 4 3 4 5 4 3 4 4 4 5 4 3 3 4 4 5 5 5 5 7 6 5 4 7 8 10 11 12 12 12 12 13 13 14 15 16
3 3 3 3 3 3 4 4 3 4 4 5 4 3 4 4 6 6 5 4 4 4 4 5 5 5 5 6 5 6 6 7 9 10 11 12 12 12 13 14 14 15 15
2 2 3 3 3 3 4 4 4 4 4 5 5 4 4 4 5 5 6 6 5 4 5 4 5 4 5 5 7 3 6 7 8 9 10 11 11 12 13 14 15 15 15
2 2 3 3 3 3 4 4 4 4 5 5 5 5 5 5 5 5 6 6 6 5 4 5 5 5 5 5 4 4 7 8 8 8 9 10 11 12 12 13 14 15 15
3 3 4 4 4 5 4 4 4 4 4 5 6 5 5 5 5 5 6 6 6 5 5 5 4 4 4 5 2 5 7 8 8 9 9 9 10 11 12 12 12 12 12
3 4 4 4 4 4 4 4 4 4 4 5 5 5 5 5 5 5 5 5 6 7 6 4 4 4 4 4 3 5 6 5 7 9 9 10 10 11 11 12 12 12 12
4 4 4 4 4 4 4 4 4 3 4 5 4 4 5 5 4 5 5 5 5 6 7 5 4 4 4 5 4 6 7 5 8 8 9 9 10 11 11 12 12 13 13
4 4 4 4 4 4 4 4 4 4 5 5 5 5 5 5 4 4 4 4 5 5 6 6 5 4 5 6 5 6 6 7 6 9 9 9 10 10 12 12 12 13 13
4 4 4 4 4 4 4 4 5 5 5 6 6 5 5 4 4 5 4 5 4 5 6 7 5 5 5 6 6 6 6 6 6 6 9 9 10 10 11 11 12 12 12
4 4 4 5 4 4 4 4 4 5 5 5 5 5 5 5 5 4 5 5 4 4 5 6 6 5 5 5 6 6 7 5 7 5 8 9 10 10 10 10 11 11 11
3 4 4 4 4 4 4 4 4 4 5 5 5 4 4 4 4 4 4 5 5 6 5 5 6 5 4 5 5 5 5 4 5 5 5 5 7 9 10 10 10 10 10
3 3 4 4 4 3 3 4 4 5 4 4 4 4 3 3 3 4 5 5 5 5 5 5 5 5 5 4 5 5 6 5 5 5 4 4 4 6 7 9 11 10 10
4 4 4 4 4 4 4 4 5 5 4 4 4 4 3 2 2 4 4 6 6 6 7 6 6 6 7 6 6 6 6 5 5 4 4 5 5 4 4 5 5 9 10
4 4 4 4 4 4 4 4 5 5 4 4 4 3 3 2 3 4 4 6 6 7 8 8 8 8 8 7 7 8 6 6 6 4 4 5 5 5 4 3 4 7 8
3 4 4 4 4 4 4 5 6 5 4 3 3 3 4 4 4 5 6 5 5 4 5 6 6 7 7 7 7 7 7 7 7 5 4 5 4 4 4 3 5 7 8
3 4 4 4 4 4 4 5 6 4 2 3 3 3 3 4 4 5 6 6 6 6 4 5 6 7 8 8 7 6 6 5 5 4 3 4 5 4 4 4 4 8 8
3 3 4 3 4 4 4 4 6 4 3 3 2 1 2 4 4 4 5 6 7 7 7 5 5 6 7 7 8 7 6 5 5 5 3 4 5 5 5 4 4 4 6
Wind_Direction
248 255 262 263 264 265 258 262 266 270 268 259 257 256 258 253 252 253 240 203 219 234 241 244 244 242 238 235 233 228 224 224 226 224 222 222 221 219 217 215 215 213 213
261 260 254 255 259 265 278 272 265 264 261 265 265 263 258 254 247 248 251 220 212 223 235 242 241 240 238 235 230 226 222 220 222 225 224 223 224 222 218 217 217 216 215
262 263 260 251 259 263 260 261 267 268 265 262 261 262 259 255 249 246 247 248 227 212 219 233 240 239 237 235 232 227 224 222 224 228 226 224 224 224 222 219 218 218 216
262 265 270 270 271 269 269 272 273 273 272 271 269 267 261 253 250 246 244 240 245 238 212 213 228 233 238 240 237 233 227 225 224 226 228 228 226 224 224 221 220 219 218
258 259 271 284 277 278 282 280 278 278 276 278 271 257 257 253 249 246 247 244 239 247 248 201 213 226 234 239 238 236 231 227 225 225 227 230 228 224 222 221 221 221 220
264 264 258 269 279 281 280 280 280 270 274 276 276 271 260 256 252 253 250 242 235 239 244 245 224 215 222 230 233 235 234 231 227 224 225 228 230 228 224 222 223 222 221
273 259 272 265 267 272 276 276 275 270 272 281 279 271 251 240 244 250 249 254 246 245 245 242 244 243 218 215 222 229 234 234 230 227 226 226 227 228 228 227 225 224 222
277 257 260 266 266 267 263 273 274 281 281 280 289 288 274 240 228 240 248 244 250 251 246 241 243 242 249 233 203 217 232 238 235 232 230 229 229 230 229 229 229 227 225
275 278 269 274 274 266 270 269 264 266 276 275 275 282 287 292 301 227 238 248 256 264 260 255 246 241 243 246 233 211 222 233 238 237 235 235 234 233 232 231 230 228 227
290 280 275 275 271 273 271 263 268 272 268 273 273 264 278 298 288 284 252 249 255 258 263 263 257 250 245 244 239 236 216 231 241 243 241 237 238 238 236 234 234 234 231
289 286 275 275 273 277 282 279 273 273 271 273 277 276 272 268 265 276 283 281 264 258 259 258 259 253 250 250 245 232 209 228 240 245 245 240 240 242 240 238 237 237 235
276 289 277 276 278 281 274 274 274 269 275 276 275 270 265 267 269 271 274 278 278 268 261 261 259 254 251 250 248 213 211 228 237 242 244 244 244 245 244 242 239 238 237
294 309 301 288 285 277 272 272 269 274 268 265 265 268 270 271 273 273 274 278 280 278 264 256 253 252 253 255 252 210 222 227 237 242 245 247 247 247 247 245 241 240 238
311 317 301 295 292 285 280 278 273 269 267 268 269 271 270 272 273 271 275 279 279 275 265 268 264 256 261 259 250 231 240 215 229 240 245 247 247 246 245 244 240 239 239
295 300 296 292 289 287 282 276 277 277 275 271 273 272 275 274 270 272 273 275 278 283 282 273 273 277 274 266 239 252 255 217 221 236 245 247 247 245 243 242 238 234 233
306 299 292 289 293 294 286 281 281 284 283 279 280 283 280 280 281 276 276 273 268 277 286 297 287 286 290 283 242 257 258 224 223 232 243 247 247 244 241 240 238 233 230
299 298 301 299 298 296 294 285 285 289 286 288 285 282 278 282 285 283 278 274 270 271 278 289 294 295 286 284 282 270 260 252 235 212 231 243 246 247 245 238 234 232 229
306 311 306 300 299 300 295 285 285 287 289 289 288 285 285 283 281 282 281 280 281 279 277 285 292 293 289 286 287 278 269 260 264 213 213 231 241 245 243 237 233 229 228
309 314 312 301 302 299 293 287 287 290 290 285 283 281 282 285 285 289 284 285 286 284 284 281 284 290 288 290 287 274 270 270 271 248 215 219 231 240 241 236 232 227 225
310 312 308 303 303 305 305 302 297 289 287 284 282 281 282 283 287 291 284 289 293 291 287 282 287 291 287 288 284 282 279 265 270 273 262 240 225 227 234 231 229 224 220
310 312 308 310 318 317 337 329 307 298 297 300 303 299 298 304 313 297 303 306 301 297 297 294 291 294 296 297 293 287 282 279 270 270 272 262 242 239 230 225 226 221 215
328 320 322 334 344 355 22 346 313 306 306 303 303 305 303 280 263 248 270 284 292 295 304 301 296 296 296 296 295 289 289 285 281 279 276 272 265 259 255 247 204 196 205
338 330 332 345 352 13 14 336 316 299 299 302 303 305 305 331 318 309 275 248 255 257 265 281 291 293 298 305 304 297 293 289 283 284 278 274 269 264 257 250 179 186 199
342 342 344 350 346 17 26 345 321 293 301 303 306 311 316 322 336 321 302 298 295 284 269 268 282 287 293 299 292 285 286 280 270 262 266 274 271 268 268 260 190 192 199
350 345 356 359 357 11 22 346 322 306 317 318 316 329 331 325 357 322 298 300 303 301 268 255 267 274 281 277 276 284 282 276 282 280 263 271 274 274 273 262 215 191 200
346 343 10 3 0 7 27 359 326 316 331 321 315 318 32 347 342 321 304 308 310 314 315 305 275 260 263 258 241 254 278 285 290 291 291 280 277 274 270 259 251 226 215